Weather History for Findlay, OH

Change the Weather History Date:

Thursday, August 29, 2013

  Actual Average Record
Temperature  
Mean Temperature 74 °F -  
Max Temperature 86 °F 80 °F 97 °F (1953)
Min Temperature 64 °F 59 °F 38 °F (1965)
Cooling Degree Days 9    
Growing Degree Days 24 (Base 50)    
Moisture  
Dew Point 67 °F    
Average Humidity 89    
Maximum Humidity 100    
Minimum Humidity 55    
Precipitation  
Precipitation 0.01 in - - ()
Sea Level Pressure  
Sea Level Pressure 30.01 in    
Wind  
Wind Speed 2 mph (NNE)    
Max Wind Speed 9 mph    
Max Gust Speed -    
Visibility 4 miles    
Events Fog    
Averages and records for this station are not official NWS values.
T = Trace of Precipitation, MM = Missing Value Source: NWS Daily Summary

Daily Weather History Graph

Daily Weather History Graph

Search for Another Location

Airport:

Trip Planner

Search our weather history database for the weather conditions in past years. The results will help you decide how hot, cold, wet, or windy it might be!

Date:

Astronomy

Aug. 29, 2013 Rise Set
Actual Time 6:58 AM EDT 8:11 PM EDT
Civil Twilight 6:30 AM EDT 8:39 PM EDT
Nautical Twilight 5:56 AM EDT 9:13 PM EDT
Astronomical Twilight 5:20 AM EDT 9:49 PM EDT
Moon 12:48 AM EDT (8/29) 3:41 PM EDT (8/29)
Length of Visible Light 14h 09m
Length of Day
13h 13m
Last Quarter, 38% of the Moon is Illuminated
Aug 29
Last Quarter
Sep 5
New
Sep 12
First Quarter
Sep 19
Full
Sep 26
Last Quarter

Hourly Weather History & Observations

Time (EDT) Temp. Heat Index Dew Point Humidity Pressure Visibility Wind Dir Wind Speed Gust Speed Precip Events Conditions
12:12 AM 69.8 °F - 69.8 °F 100% 30.01 in 2.0 mi Calm Calm - N/A   Partly Cloudy
12:32 AM 69.8 °F - 69.8 °F 100% 30.01 in 1.8 mi Calm Calm - N/A   Mostly Cloudy
12:41 AM 71.6 °F - 69.8 °F 94% 30.01 in 2.5 mi Calm Calm - N/A   Mostly Cloudy
12:53 AM 68.0 °F - 68.0 °F 100% 29.98 in 0.8 mi Calm Calm - N/A   Overcast
1:11 AM 69.8 °F - 68.0 °F 94% 30.00 in 0.2 mi Calm Calm - N/A Fog Fog
1:22 AM 69.8 °F - 68.0 °F 94% 30.00 in 0.2 mi Calm Calm - N/A Fog Fog
1:53 AM 70.0 °F - 69.1 °F 97% 29.98 in 0.2 mi Calm Calm - N/A Fog Fog
1:59 AM 69.8 °F - 69.8 °F 100% 30.01 in 0.5 mi Calm Calm - N/A Fog Fog
2:07 AM 69.8 °F - 68.0 °F 94% 30.01 in 0.2 mi Calm Calm - N/A Fog Fog
2:20 AM 68.0 °F - 68.0 °F 100% 30.00 in 0.2 mi Calm Calm - N/A Fog Fog
2:28 AM 66.2 °F - 66.2 °F 100% 30.00 in 0.2 mi Calm Calm - N/A Fog Fog
2:44 AM 66.2 °F - 66.2 °F 100% 30.00 in 0.2 mi Calm Calm - N/A Fog Fog
2:53 AM 66.9 °F - 66.0 °F 97% 29.97 in 0.8 mi North 3.5 mph - N/A   Mist
2:58 AM 66.2 °F - 66.2 °F 100% 30.00 in 1.2 mi NNW 3.5 mph - N/A   Scattered Clouds
3:22 AM 66.2 °F - 66.2 °F 100% 30.00 in 0.8 mi Calm Calm - N/A   Mist
3:31 AM 66.2 °F - 66.2 °F 100% 30.00 in 0.2 mi Calm Calm - N/A Fog Fog
3:41 AM 66.2 °F - 66.2 °F 100% 30.00 in 1.0 mi WNW 3.5 mph - N/A   Mist
3:44 AM 66.2 °F - 66.2 °F 100% 30.00 in 2.0 mi WNW 3.5 mph - N/A   Partly Cloudy
3:53 AM 66.0 °F - 64.9 °F 96% 29.98 in 2.5 mi WNW 3.5 mph - N/A   Partly Cloudy
4:02 AM 66.2 °F - 64.4 °F 94% 30.00 in 0.8 mi Calm Calm - N/A   Clear
4:17 AM 66.2 °F - 64.4 °F 94% 30.01 in 1.0 mi WNW 3.5 mph - N/A   Mist
4:21 AM 64.4 °F - 64.4 °F 100% 30.00 in 0.8 mi WNW 3.5 mph - N/A   Mist
4:29 AM 64.4 °F - 64.4 °F 100% 30.00 in 0.2 mi Calm Calm - N/A Fog Fog
4:53 AM 66.0 °F - 66.0 °F 100% 29.98 in 0.2 mi Calm Calm - N/A Fog Fog
5:53 AM 64.0 °F - 64.0 °F 100% 29.99 in 0.2 mi NW 3.5 mph - N/A Fog Fog
6:25 AM 66.2 °F - 66.2 °F 100% 30.02 in 0.2 mi NW 3.5 mph - 0.01 in Fog Fog
6:53 AM 68.0 °F - 66.9 °F 96% 30.01 in 0.2 mi North 4.6 mph - 0.01 in Fog Fog
7:09 AM 68.0 °F - 66.2 °F 94% 30.04 in 0.5 mi NNW 3.5 mph - N/A Fog Fog
7:20 AM 69.8 °F - 68.0 °F 94% 30.04 in 1.0 mi NNW 3.5 mph - N/A   Overcast
7:42 AM 69.8 °F - 68.0 °F 94% 30.05 in 2.5 mi North 4.6 mph - N/A   Overcast
7:53 AM 69.1 °F - 68.0 °F 96% 30.03 in 2.5 mi NNW 4.6 mph - N/A   Overcast
8:11 AM 69.8 °F - 69.8 °F 100% 30.05 in 3.0 mi NNE 3.5 mph - N/A   Overcast
8:53 AM 72.0 °F - 69.1 °F 91% 30.04 in 3.0 mi NE 5.8 mph - N/A   Overcast
9:53 AM 73.0 °F - 69.1 °F 87% 30.05 in 4.0 mi NE 9.2 mph - N/A   Overcast
10:35 AM 75.2 °F - 69.8 °F 83% 30.08 in 5.0 mi ENE 6.9 mph - N/A   Haze
10:53 AM 75.0 °F - 69.1 °F 82% 30.06 in 5.0 mi ENE 6.9 mph - N/A   Haze
11:15 AM 75.2 °F - 69.8 °F 83% 30.08 in 5.0 mi East 5.8 mph - N/A   Haze
11:53 AM 79.0 °F - 69.1 °F 72% 30.05 in 7.0 mi East 9.2 mph - N/A   Scattered Clouds
12:53 PM 81.0 °F 84.1 °F 69.1 °F 67% 30.05 in 10.0 mi East 6.9 mph - N/A   Partly Cloudy
1:53 PM 82.9 °F 85.4 °F 66.9 °F 58% 30.03 in 10.0 mi NE 9.2 mph - N/A   Clear
2:53 PM 82.9 °F 85.4 °F 66.9 °F 58% 30.02 in 10.0 mi ESE 3.5 mph - N/A   Clear
3:53 PM 84.0 °F 86.5 °F 66.9 °F 56% 30.02 in 10.0 mi Variable 3.5 mph - N/A   Scattered Clouds
4:53 PM 84.9 °F 87.6 °F 66.9 °F 55% 30.00 in 10.0 mi Variable 5.8 mph - N/A   Scattered Clouds
5:53 PM 84.0 °F 86.5 °F 66.9 °F 56% 30.00 in 10.0 mi East 6.9 mph - N/A   Clear
6:53 PM 82.9 °F 85.0 °F 66.0 °F 56% 30.00 in 10.0 mi ENE 5.8 mph - N/A   Clear
7:53 PM 80.1 °F 82.3 °F 66.9 °F 64% 30.00 in 10.0 mi NE 6.9 mph - N/A   Clear
8:53 PM 75.9 °F - 69.1 °F 79% 30.01 in 10.0 mi ENE 6.9 mph - N/A   Clear
9:53 PM 73.9 °F - 68.0 °F 82% 30.02 in 10.0 mi ENE 5.8 mph - N/A   Clear
10:53 PM 72.0 °F - 68.0 °F 87% 30.01 in 10.0 mi East 3.5 mph - N/A   Clear
11:53 PM 70.0 °F - 66.9 °F 90% 30.00 in 8.0 mi Calm Calm - N/A   Clear